This is the latest recevied weather packets stored in our database for station/object OK1VCF-8. If no packets are shown the sender has not sent any weather packets the latest 10 day(s).
| Time | Temp. | Humidity | Pressure | Rain* | Wind** | Luminosity | Snow |
|---|---|---|---|---|---|---|---|
| 1777842131 | 17.78° C | 46% | 1013.4 hPa | - | - | - | - |
| 1777841694 | 17.78° C | 46% | 1013.4 hPa | - | - | - | - |
| 1777841257 | 17.78° C | 45% | 1013.8 hPa | - | - | - | - |
| 1777840819 | 17.78° C | 46% | 1013.5 hPa | - | - | - | - |
| 1777840380 | 17.78° C | 45% | 1013.5 hPa | - | - | - | - |
| 1777839941 | 17.78° C | 44% | 1013.4 hPa | - | - | - | - |
| 1777839502 | 17.78° C | 44% | 1013.4 hPa | - | - | - | - |
| 1777839063 | 18.33° C | 44% | 1013.5 hPa | - | - | - | - |
| 1777838625 | 18.33° C | 44% | 1013.5 hPa | - | - | - | - |
| 1777838185 | 18.33° C | 43% | 1013.6 hPa | - | - | - | - |
| 1777837747 | 18.89° C | 43% | 1013.6 hPa | - | - | - | - |
| 1777837309 | 18.89° C | 42% | 1013.6 hPa | - | - | - | - |
| 1777836707 | 18.89° C | 42% | 1013.4 hPa | - | - | - | - |
| 1777836269 | 18.89° C | 42% | 1013.4 hPa | - | - | - | - |
| 1777835828 | 18.89° C | 41% | 1013.4 hPa | - | - | - | - |
| 1777835390 | 18.89° C | 40% | 1013.3 hPa | - | - | - | - |
| 1777834951 | 19.44° C | 40% | 1013.7 hPa | - | - | - | - |
| 1777834511 | 19.44° C | 40% | 1013.2 hPa | - | - | - | - |
| 1777834075 | 20° C | 38% | 1013.2 hPa | - | - | - | - |
| 1777833637 | 20° C | 37% | 1013.2 hPa | - | - | - | - |
| 1777833199 | 20° C | 36% | 1013.1 hPa | - | - | - | - |
| 1777832760 | 20° C | 36% | 1013 hPa | - | - | - | - |
| 1777832320 | 20° C | 34% | 1012.9 hPa | - | - | - | - |
| 1777831882 | 21.11° C | 34% | 1012.9 hPa | - | - | - | - |
| 1777831441 | 21.11° C | 33% | 1012.8 hPa | - | - | - | - |
* Rain since midnight (hover to see other rain measurements)
** Current wind speed in m/s (hover to see current wind gust speed)